JST154 NZAA-YBBN

Flight info

Callsign JST154
Flight time N/A
Altitude 35000
Route UPLAR A464 DUBUD Q39 SAVER G329 UGTUG
Aircraft A21N/M-SDE2E3FGHIRWXY/LB1

Departure

Time 2026-05-04 00:20
Airport Auckland International Airport (NZAA)

Arrival

Time N/A
Airport Brisbane International Airport (YBBN)
Time Latitude Longitude Altitude Speed Heading
2026-05-03 23:59 -37.00702 174.78290 27 ft 0 kts 295°
2026-05-04 00:01 -37.00704 174.78295 25 ft 0 kts 296°
2026-05-04 00:09 -37.00704 174.78296 25 ft 1 kts 296°
2026-05-04 00:10 -37.00710 174.78310 29 ft 2 kts 296°
2026-05-04 00:10 -37.00715 174.78325 28 ft 2 kts 296°
2026-05-04 00:10 -37.00721 174.78339 27 ft 2 kts 295°
2026-05-04 00:10 -37.00726 174.78354 25 ft 2 kts 295°
2026-05-04 00:11 -37.00732 174.78369 25 ft 2 kts 295°
2026-05-04 00:11 -37.00738 174.78383 26 ft 2 kts 295°
2026-05-04 00:11 -37.00743 174.78398 29 ft 2 kts 294°
2026-05-04 00:11 -37.00748 174.78412 28 ft 2 kts 294°
2026-05-04 00:12 -37.00751 174.78419 29 ft 2 kts 294°
2026-05-04 00:14 -37.00746 174.78400 27 ft 9 kts 278°
2026-05-04 00:14 -37.00783 174.78377 29 ft 10 kts 184°
2026-05-04 00:15 -37.00881 174.78386 27 ft 18 kts 143°
2026-05-04 00:15 -37.00966 174.78522 26 ft 22 kts 122°
2026-05-04 00:15 -37.00986 174.78719 25 ft 25 kts 71°
2026-05-04 00:15 -37.00925 174.78939 25 ft 28 kts 71°
2026-05-04 00:16 -37.00855 174.79179 26 ft 30 kts 67°
2026-05-04 00:16 -37.00787 174.79431 26 ft 31 kts 73°
2026-05-04 00:16 -37.00732 174.79645 26 ft 26 kts 70°
2026-05-04 00:16 -37.00677 174.79838 27 ft 19 kts 70°
2026-05-04 00:17 -37.00630 174.80006 26 ft 21 kts 71°
2026-05-04 00:17 -37.00579 174.80191 25 ft 23 kts 71°
2026-05-04 00:17 -37.00527 174.80388 26 ft 25 kts 70°
2026-05-04 00:17 -37.00488 174.80534 27 ft 12 kts 84°
2026-05-04 00:18 -37.00501 174.80583 27 ft 0 kts 126°
2026-05-04 00:19 -37.00502 174.80586 27 ft 2 kts 126°
2026-05-04 00:19 -37.00583 174.80596 28 ft 23 kts 204°
2026-05-04 00:19 -37.00705 174.80435 25 ft 28 kts 249°
2026-05-04 00:19 -37.00822 174.80016 26 ft 91 kts 250°
2026-05-04 00:20 -37.01113 174.78973 28 ft 159 kts 251°
2026-05-04 00:20 -37.01532 174.77499 365 ft 189 kts 248°
2026-05-04 00:20 -37.02021 174.75965 1369 ft 188 kts 248°
2026-05-04 00:20 -37.02456 174.74450 2308 ft 189 kts 251°
2026-05-04 00:21 -37.02888 174.72834 2855 ft 208 kts 252°
2026-05-04 00:21 -37.03366 174.71014 3342 ft 232 kts 252°
2026-05-04 00:21 -37.03895 174.69013 3965 ft 252 kts 252°
2026-05-04 00:21 -37.04474 174.66842 4605 ft 271 kts 251°
2026-05-04 00:22 -37.05087 174.64558 5481 ft 280 kts 251°
2026-05-04 00:22 -37.05720 174.62230 6435 ft 284 kts 250°
2026-05-04 00:22 -37.06369 174.59870 7343 ft 289 kts 250°
2026-05-04 00:22 -37.07027 174.57479 8282 ft 292 kts 250°
2026-05-04 00:23 -37.07467 174.55877 8905 ft 294 kts 250°
2026-05-04 00:23 -37.08138 174.53435 9836 ft 299 kts 251°
2026-05-04 00:23 -37.08817 174.50956 10725 ft 303 kts 251°
2026-05-04 00:23 -37.09521 174.48384 11216 ft 323 kts 251°
2026-05-04 00:24 -37.10144 174.44551 11628 ft 350 kts 274°
2026-05-04 00:24 -37.09879 174.42549 12064 ft 353 kts 289°
2026-05-04 00:24 -37.08811 174.39797 12933 ft 352 kts 302°
2026-05-04 00:24 -37.07533 174.37164 13760 ft 355 kts 303°
2026-05-04 00:25 -37.06223 174.34523 14589 ft 358 kts 303°
2026-05-04 00:25 -37.04906 174.31856 15302 ft 362 kts 303°
2026-05-04 00:25 -37.03580 174.29150 16017 ft 366 kts 303°
2026-05-04 00:25 -37.02251 174.26423 16705 ft 370 kts 303°
2026-05-04 00:26 -37.00923 174.23690 17394 ft 373 kts 303°
2026-05-04 00:26 -36.99567 174.20899 18083 ft 377 kts 303°
2026-05-04 00:26 -36.98196 174.18075 18769 ft 381 kts 303°
2026-05-04 00:26 -36.96816 174.15238 19376 ft 384 kts 303°
2026-05-04 00:27 -36.95424 174.12376 19990 ft 387 kts 303°
2026-05-04 00:27 -36.94020 174.09495 20599 ft 389 kts 303°
2026-05-04 00:27 -36.92605 174.06593 21193 ft 392 kts 303°
2026-05-04 00:27 -36.91178 174.03670 21787 ft 395 kts 303°
2026-05-04 00:28 -36.89739 174.00725 22374 ft 399 kts 303°
2026-05-04 00:28 -36.88301 173.97748 22942 ft 402 kts 301°
2026-05-04 00:28 -36.86937 173.94683 23538 ft 405 kts 300°
2026-05-04 00:28 -36.85602 173.91567 24094 ft 409 kts 299°
2026-05-04 00:29 -36.84257 173.88429 24591 ft 411 kts 300°
2026-05-04 00:29 -36.82897 173.85284 25098 ft 412 kts 300°
2026-05-04 00:29 -36.81525 173.82140 25643 ft 412 kts 300°
2026-05-04 00:29 -36.80140 173.78983 26084 ft 415 kts 300°
2026-05-04 00:30 -36.78746 173.75815 26542 ft 417 kts 300°
2026-05-04 00:30 -36.77346 173.72639 27016 ft 418 kts 300°
2026-05-04 00:30 -36.75941 173.69453 27483 ft 420 kts 300°
2026-05-04 00:30 -36.74526 173.66248 27870 ft 423 kts 300°
2026-05-04 00:31 -36.73100 173.63024 28251 ft 426 kts 300°
2026-05-04 00:31 -36.71666 173.59780 28698 ft 427 kts 299°
2026-05-04 00:31 -36.70246 173.56573 29083 ft 429 kts 299°
2026-05-04 00:31 -36.68799 173.53309 29442 ft 432 kts 299°
2026-05-04 00:32 -36.67341 173.50021 29748 ft 435 kts 300°
2026-05-04 00:32 -36.65873 173.46715 30115 ft 437 kts 300°
2026-05-04 00:32 -36.64399 173.43399 30463 ft 439 kts 299°
2026-05-04 00:32 -36.62915 173.40068 30777 ft 441 kts 300°
2026-05-04 00:33 -36.61421 173.36720 31059 ft 444 kts 299°
2026-05-04 00:33 -36.58410 173.29971 31651 ft 447 kts 299°
2026-05-04 00:33 -36.56899 173.26588 32019 ft 447 kts 299°
2026-05-04 00:34 -36.55384 173.23197 32366 ft 447 kts 299°
2026-05-04 00:34 -36.53879 173.19837 32884 ft 443 kts 299°
2026-05-04 00:34 -36.52381 173.16494 33246 ft 443 kts 299°
2026-05-04 00:34 -36.50883 173.13155 33615 ft 442 kts 300°
2026-05-04 00:35 -36.49387 173.09822 33902 ft 443 kts 300°
2026-05-04 00:35 -36.47879 173.06469 34176 ft 445 kts 300°
2026-05-04 00:35 -36.46370 173.03117 34507 ft 444 kts 300°
2026-05-04 00:35 -36.44868 172.99785 34871 ft 440 kts 300°
2026-05-04 00:36 -36.43370 172.96462 35133 ft 441 kts 300°
2026-05-04 00:36 -36.41865 172.93129 35306 ft 442 kts 299°
2026-05-04 00:36 -36.40364 172.89807 35500 ft 441 kts 300°
2026-05-04 00:37 -36.37369 172.83189 35528 ft 439 kts 300°
2026-05-04 00:37 -36.34358 172.76548 35527 ft 442 kts 300°
2026-05-04 00:38 -36.31374 172.69983 35521 ft 439 kts 300°
2026-05-04 00:38 -36.28354 172.63350 35523 ft 443 kts 300°
2026-05-04 00:39 -36.25359 172.56783 35518 ft 432 kts 300°
2026-05-04 00:39 -36.22372 172.50248 35518 ft 439 kts 300°
2026-05-04 00:40 -36.19377 172.43706 35519 ft 433 kts 300°
2026-05-04 00:40 -36.16377 172.37167 35517 ft 442 kts 300°
2026-05-04 00:41 -36.13360 172.30604 35516 ft 436 kts 300°
2026-05-04 00:41 -36.10350 172.24068 35516 ft 440 kts 300°
2026-05-04 00:42 -36.07319 172.17503 35513 ft 435 kts 300°
2026-05-04 00:42 -36.04314 172.11003 35514 ft 439 kts 300°
2026-05-04 00:43 -36.01293 172.04482 35513 ft 436 kts 300°
2026-05-04 00:43 -35.98272 171.97977 35510 ft 440 kts 300°
2026-05-04 00:44 -35.95319 171.91629 35510 ft 434 kts 300°
2026-05-04 00:44 -35.92387 171.85338 35508 ft 436 kts 300°
2026-05-04 00:45 -35.89346 171.78824 35502 ft 436 kts 300°
2026-05-04 00:45 -35.86349 171.72415 35500 ft 435 kts 300°
2026-05-04 00:46 -35.83304 171.65917 35502 ft 437 kts 300°
2026-05-04 00:46 -35.80266 171.59448 35502 ft 437 kts 300°
2026-05-04 00:47 -35.77194 171.52916 35500 ft 440 kts 300°
2026-05-04 00:47 -35.74137 171.46432 35499 ft 438 kts 300°
2026-05-04 00:48 -35.71071 171.39942 35497 ft 441 kts 300°
2026-05-04 00:48 -35.68013 171.33479 35498 ft 435 kts 300°
2026-05-04 00:49 -35.64939 171.26993 35497 ft 441 kts 300°
2026-05-04 00:49 -35.61844 171.20482 35492 ft 439 kts 300°
2026-05-04 00:50 -35.58741 171.13955 35492 ft 443 kts 300°
2026-05-04 00:50 -35.55805 171.07420 35490 ft 438 kts 294°
2026-05-04 00:51 -35.53280 171.00558 35483 ft 441 kts 294°
2026-05-04 00:51 -35.50741 170.93654 35481 ft 440 kts 294°
2026-05-04 00:52 -35.48222 170.86823 35482 ft 440 kts 294°
2026-05-04 00:52 -35.45679 170.79937 35481 ft 443 kts 294°
2026-05-04 00:53 -35.43123 170.73036 35484 ft 444 kts 294°
2026-05-04 00:53 -35.40580 170.66186 35482 ft 441 kts 294°
2026-05-04 00:54 -35.38048 170.59380 35475 ft 442 kts 294°
2026-05-04 00:54 -35.35492 170.52535 35478 ft 445 kts 294°
2026-05-04 00:55 -35.32922 170.45673 35478 ft 442 kts 294°
2026-05-04 00:55 -35.30358 170.38832 35478 ft 441 kts 294°
2026-05-04 00:56 -35.27783 170.31975 35473 ft 445 kts 294°
2026-05-04 00:56 -35.25196 170.25109 35469 ft 441 kts 294°
2026-05-04 00:57 -35.22590 170.18205 35466 ft 453 kts 294°
2026-05-04 00:57 -35.19911 170.11127 35466 ft 464 kts 294°
2026-05-04 00:58 -35.17196 170.03960 35467 ft 471 kts 294°
2026-05-04 00:58 -35.14426 169.96670 35466 ft 474 kts 293°
2026-05-04 00:59 -35.11634 169.89338 35457 ft 477 kts 294°
2026-05-04 00:59 -35.08820 169.81966 35461 ft 479 kts 294°
2026-05-04 01:00 -35.05987 169.74570 35459 ft 480 kts 292°
2026-05-04 01:00 -35.03155 169.67181 35472 ft 481 kts 293°
2026-05-04 01:01 -35.00322 169.59813 35449 ft 482 kts 293°
2026-05-04 01:01 -34.97471 169.52416 35452 ft 482 kts 293°
2026-05-04 01:02 -34.94618 169.45021 35449 ft 482 kts 294°
2026-05-04 01:02 -34.91755 169.37623 35456 ft 483 kts 293°
2026-05-04 01:03 -34.88883 169.30217 35455 ft 483 kts 292°
2026-05-04 01:03 -34.86003 169.22802 35451 ft 484 kts 293°
2026-05-04 01:04 -34.83115 169.15391 35448 ft 484 kts 293°
2026-05-04 01:04 -34.80222 169.07983 35435 ft 484 kts 292°
2026-05-04 01:05 -34.77327 169.00582 35446 ft 484 kts 293°
2026-05-04 01:05 -34.74534 168.93459 35442 ft 485 kts 293°
2026-05-04 01:06 -34.72372 168.87960 35434 ft 484 kts 293°